Home   Weather   Christiansted   Past weeks

Flag for US Virgin Islands Past Weather in Christiansted, US Virgin Islands — Yesterday and Last 2 Weeks

Now
78 °F

Passing clouds.


Feels Like: 80 °F
Forecast: N/A
Wind: 5 mph from Southwest

Location: Christiansted / Henry E. Rohlsen Airport - Saint Croix

Current Time: Feb 20, 2017 at 7:14:57 pm

Latest Report: Feb 20, 2017 at 6:34 pm


Visibility: 10 mi

Pressure: 29.92 "Hg

Humidity: 74%

Dew Point: 69 °F

Location of ChristianstedLocation

Past Weather in Christiansted — Graph

°F

Christiansted Temperature Yesterday

Maximum temperature yesterday: 84 °F (at 12:53 pm)
Minimum temperature yesterday: 69 °F (at 3:53 am)
Average temperature yesterday: 76 °F

High & Low Weather Summary for the Past Weeks

 TemperatureHumidityPressure
High86 °F (Feb 6, 12:53 pm)94% (Feb 5, 9:53 pm)30.16 "Hg (Feb 5, 9:53 pm)
Low67 °F (Feb 15, 2:53 am)45% (Feb 10, 3:53 pm)29.90 "Hg (Feb 20, 3:53 pm)
Average77 °F74%30.04 "Hg
* Reported Feb 5 5:53 pm — Feb 20 5:56 pm, Christiansted, Weather by CustomWeather, © 2017

Note: Actual official high and low records may vary slightly from our data, if they occured in-between our weather recording intervals... More about our weather records

Advertising

Christiansted Weather History for the Previous 24 Hours

Scroll right to see more
 ConditionsComfort  
Time TempWeatherWind HumidityBarometerVisibility
5:56 pm
Mon, Feb 20
79 °FBroken clouds.7 mph72%29.92 "Hg10 mi
4:53 pm80 °FLight rain. Scattered clouds.6 mph71%29.91 "Hg10 mi
3:53 pm76 °FRain. Broken clouds.8 mph85%29.90 "Hg6 mi
2:53 pm83 °FScattered clouds.9 mph63%29.92 "Hg10 mi
1:53 pm84 °FPassing clouds.13 mph61%29.92 "Hg10 mi
12:53 pm83 °FPassing clouds.13 mph61%29.96 "Hg10 mi
11:53 am82 °FPassing clouds.12 mph63%29.99 "Hg10 mi
10:53 am82 °FPassing clouds.9 mph63%30.01 "Hg10 mi
9:53 am81 °FPassing clouds.9 mph62%30.02 "Hg10 mi
8:53 am80 °FPassing clouds.8 mph64%30.00 "Hg10 mi
7:53 am75 °FPassing clouds.No wind79%29.99 "Hg10 mi
6:53 am69 °FPassing clouds.5 mph87%29.98 "Hg10 mi
5:53 am69 °FClear.5 mph90%29.97 "Hg10 mi
4:53 am69 °FClear.5 mph90%29.97 "Hg10 mi
3:53 am70 °FClear.6 mph87%29.98 "Hg10 mi
2:53 am70 °FClear.6 mph90%29.99 "Hg10 mi
1:53 am70 °FClear.5 mph90%30.00 "Hg10 mi
12:53 am71 °FClear.6 mph87%30.03 "Hg10 mi
11:53 pm
Sun, Feb 19
71 °FClear.5 mph87%30.04 "Hg10 mi
10:53 pm71 °FClear.3 mph87%30.04 "Hg10 mi
9:53 pm72 °FClear.5 mph81%30.04 "Hg10 mi
8:53 pm73 °FClear.6 mph79%30.04 "Hg10 mi
7:53 pm74 °FClear.5 mph76%30.03 "Hg10 mi
Weather by CustomWeather, © 2017

See weather overviewHow to use our weather pages